Weather in Katyryk

Russia / Krasnoyarsk Krai     71°16′28″N   99°23′14″E
temp.,
°C
wind,
m/s
gust,
m/s
humid.,
%
clouds,
%
prec.,
mm/h
press.,
hPa
HPBL,
m
22 january, fri
fri2201:00−40e119423 0.0 103118
04:00−39ene129155 0.0 103118
07:00−38ene119477 0.0 103118
10:00−40ene119683 0.0 103018
13:00−40e119677 0.0 103018
16:00−40se019678 0.0 103018
19:00−38wnw009476 0.0 102919
22:00−35wsw119699 0.0 102819
23 january, sat
sat2301:00−34wsw2297100 0.1 102878
04:00−33w239899 0.1 102791
07:00−35wsw339899 0.1 102727
10:00−36wsw3499100 0.0 102735
13:00−35wsw3597100 0.0 102888
16:00−35wsw3597100 0.0 102886
19:00−36wsw459798 0.0 102986
22:00−35sw479695 0.0 1030161
24 january, sun
sun2401:00−34wsw589594 0.0 1030252
04:00−34wsw5994100 0.0 1030275
07:00−34wsw5995100 0.0 1031216
10:00−33wsw5994100 0.0 1032289
13:00−33wsw5893100 0.0 1032307
16:00−32wsw5896100 0.1 1034312
19:00−32wsw5897100 0.3 1035307
22:00−31wsw5797100 0.1 1036306
25 january, mon
mon2501:00−31wsw4797100 0.3 1036299
04:00−31wsw4797100 0.1 1037298
07:00−31wsw4797100 0.3 1038297
10:00−31wsw4797100 0.1 1038299
13:00−32wsw4697100 0.3 1038283
16:00−32wsw4797100 0.2 1039279
19:00−32wsw4797100 0.3 1039300
22:00−32wsw4797100 0.2 1040288
26 january, tue
tue2601:00−32wsw4797100 0.4 1040279
04:00−32wsw4697100 0.2 1041253
07:00−33wsw4698100 0.4 1041234
10:00−33wsw3698100 0.1 1042216
13:00−33sw3598100 0.3 1042184
16:00−33sw3498100 0.1 1043147
19:00−34sw2498100 0.2 1044115
22:00−34sw2398100 0.1 104438